[[{"header":{"parameterUnit":"m.s-1","parameterCategory":1,"la1":30.2991,"la2":30.254,"lo1":-89.0895,"lo2":-89.0444,"dy":0.0017,"dx":0.0017,"nx":28,"ny":28,"refTime":"2024-03-16T09:00:00:Z","depth":0,"parameterNumber":2,"parameterNumberName":"U-component_of_WINDS"},"data":[0,0,0,0,0,0,0,0,0,0,0,0,0,0,0,0,0,0,0,0,0,0,0,0,0,0,0,0,0,0,0,0,0,0,0,0,0,0,0,0,0,0,0,0,0,0,0,0,0,0,0,0,0,0,0,0,0,0,-1.1087,-1.1088,0,-1.1185,-1.1186,-1.1187,-1.1187,-1.1186,-1.1185,-1.1183,-1.1292,-1.1296,-1.13,0,0,0,0,0,0,0,0,0,0,0,0,0,-1.091,-1.0913,-1.1087,-1.1088,-1.1089,-1.1184,-1.1186,-1.1187,-1.1187,-1.1186,-1.1184,-1.1183,-1.129,-1.1295,-1.13,0,0,0,0,0,0,0,0,0,0,0,0,0,-1.0996,-1.0915,-1.1087,-1.1101,-1.1103,-1.1184,-1.1186,-1.1187,-1.1188,-1.1186,-1.1184,-1.1182,-1.1289,-1.1295,-1.1301,-1.1377,0,0,-1.132,-1.1322,0,0,0,0,0,0,0,0,-1.0991,-1.1002,-1.1097,-1.11,-1.1103,-1.1171,-1.1163,-1.1251,-1.1188,-1.1156,-1.1183,-1.1181,-1.1254,-1.1263,-1.1286,-1.1382,-1.1387,-1.132,-1.1324,-1.1326,-1.1328,0,0,0,0,0,0,0,-1.0985,-1.0998,-1.1126,-1.1099,-1.1102,-1.1105,-1.1115,-1.118,-1.1215,-1.1158,-1.1159,-1.117,-1.1255,-1.128,-1.1288,-1.1388,-1.132,-1.1325,-1.1329,-1.1331,-1.1555,-1.1557,0,0,0,0,0,0,-1.0975,-1.0993,-1.1123,-1.1129,-1.104,-1.111,-1.1121,-1.1152,-1.1214,-1.1221,-1.1171,-1.1169,-1.127,-1.1281,-1.1292,-1.1386,-1.1326,-1.1332,-1.1336,-1.1553,-1.1556,-1.1558,0,0,0,0,0,0,-1.0971,-1.0986,-1.1119,-1.1061,-1.1078,-1.1115,-1.1149,-1.1154,-1.1179,-1.1223,-1.1231,-1.1189,-1.1269,-1.1283,-1.1356,-1.139,-1.1335,-1.134,-1.155,-1.1554,-1.1557,-1.1574,0,0,0,0,0,0,-1.0966,-1.0985,-1.1012,-1.1061,-1.1081,-1.1178,-1.1151,-1.1158,-1.1188,-1.1187,-1.1242,-1.125,-1.1269,-1.1347,-1.1362,-1.1397,-1.1345,-1.1547,-1.1552,-1.1556,-1.1571,-1.1578,-1.1584,0,0,0,0,0,-1.096,-1.1014,-1.1013,-1.1029,-1.1115,-1.118,-1.1191,-1.1209,-1.1191,-1.122,-1.1249,-1.1248,-1.1384,-1.1354,-1.1371,-1.1409,-1.1545,-1.155,-1.1555,-1.1568,-1.1577,-1.1584,0,0,0,0,0,0,-1.097,-1.1021,-1.102,-1.1092,-1.1131,-1.118,-1.1216,-1.1218,-1.1265,-1.1262,-1.1285,-1.1298,-1.137,-1.1397,-1.1363,-1.1487,-1.1463,-1.1472,-1.1466,-1.1475,-1.1481,-1.1473,-1.135,0,0,0,0,0,-1.098,-1.1026,-1.1069,-1.1129,-1.1148,-1.1179,-1.1208,-1.1218,-1.1261,-1.1279,-1.1313,-1.1357,-1.141,-1.1444,-1.1495,-1.1575,-1.1589,-1.161,-1.1617,-1.1622,-1.1629,-1.1676,-1.1686,-1.1575,-1.1575,-1.1575,0,0,-1.1003,-1.1036,-1.1064,-1.1132,-1.1163,-1.1213,-1.1193,-1.1246,-1.1284,-1.1288,-1.1357,-1.1385,-1.1436,-1.1512,-1.1548,-1.1537,-1.1663,-1.1628,-1.1632,-1.1637,-1.1682,-1.1692,-1.1702,-1.1578,-1.1578,-1.1577,0,0,-1.1069,-1.1098,-1.1151,-1.1183,-1.123,-1.1251,-1.1264,-1.1312,-1.133,-1.14,-1.1404,-1.1451,-1.1541,-1.1578,-1.1608,-1.169,-1.1692,-1.1707,-1.1741,-1.1786,-1.1794,-1.1802,-1.1832,-1.1843,-1.1714,-1.1714,-1.1714,0,-1.1091,-1.1163,-1.1179,-1.1232,-1.1262,-1.1266,-1.1322,-1.1353,-1.1416,-1.1439,-1.1425,-1.1539,-1.1574,-1.166,-1.168,-1.1704,-1.1722,-1.17,-1.1791,-1.1799,-1.1807,-1.1836,-1.1847,-1.1716,-1.1715,-1.1715,-1.1715,0,-1.1189,-1.1239,-1.1277,-1.1334,-1.137,-1.1424,-1.1451,-1.1486,-1.1494,-1.1517,-1.159,-1.1632,-1.1692,-1.1714,-1.1723,-1.1802,-1.1794,-1.1786,-1.1761,-1.1819,-1.1847,-1.1858,-1.1718,-1.1717,-1.1717,-1.1716,0,0,-1.1263,-1.1329,-1.1343,-1.137,-1.1423,-1.1464,-1.152,-1.1576,-1.1606,-1.165,-1.1699,-1.1776,-1.1769,-1.1804,-1.1818,-1.1857,-1.1921,-1.1845,-1.1846,-1.1858,-1.2013,-1.2018,-1.2031,-1.1923,-1.1925,-1.1927,-1.2009,0,-1.1335,-1.143,-1.1447,-1.1532,-1.158,-1.1585,-1.1634,-1.1675,-1.1698,-1.1745,-1.1773,-1.1827,-1.1813,-1.1834,-1.1873,-1.1905,-1.1953,-1.1899,-1.1971,-1.1974,-1.1957,-1.2045,-1.2051,-1.2126,-1.202,-1.2022,-1.2023,0,-1.143,-1.1474,-1.1563,-1.1611,-1.1632,-1.1675,-1.1729,-1.1773,-1.182,-1.1835,-1.1874,-1.1884,-1.1946,-1.192,-1.2007,-1.197,-1.2001,-1.2022,-1.2025,-1.2032,-1.2001,-1.2055,-1.215,-1.2162,-1.204,-1.2039,-1.2038,0,-1.1476,-1.1558,-1.1621,-1.1644,-1.1702,-1.1733,-1.1759,-1.1804,-1.1837,-1.1886,-1.1908,-1.1965,-1.1996,-1.2041,-1.2067,-1.2045,-1.2153,-1.2128,-1.2169,-1.2169,-1.2191,-1.2189,-1.2293,-1.2211,-1.2211,-1.2211,-1.2211,0,-1.1554,-1.1608,-1.1642,-1.1682,-1.1744,-1.1765,-1.1827,-1.1853,-1.1894,-1.1941,-1.1951,-1.1996,-1.2027,-1.2078,-1.21,-1.217,-1.2184,-1.22,-1.2205,-1.2198,-1.2196,-1.2219,-1.2214,-1.2214,-1.2213,-1.2213,-1.2212,0,-1.1614,-1.1639,-1.1709,-1.1758,-1.1772,-1.1816,-1.1859,-1.19,-1.1924,-1.1984,-1.1999,-1.2038,-1.2098,-1.2129,-1.2205,-1.222,-1.2299,-1.2301,-1.2281,-1.2283,-1.2323,-1.2319,-1.2444,-1.2462,-1.2369,-1.2369,-1.237,0,-1.1662,-1.1703,-1.1756,-1.1787,-1.1813,-1.1863,-1.1896,-1.192,-1.1956,-1.2013,-1.2048,-1.2107,-1.2156,-1.2253,-1.229,-1.2349,-1.2353,-1.2393,-1.2362,-1.2355,-1.2354,-1.2351,-1.2356,-1.2398,-1.2399,-1.2399,-1.24,0,-1.1744,-1.1755,-1.1801,-1.1852,-1.1892,-1.1934,-1.1976,-1.2002,-1.2033,-1.2073,-1.2132,-1.217,-1.2247,-1.2307,-1.2369,-1.24,-1.2407,-1.241,-1.2422,-1.2416,-1.2403,-1.2411,-1.2296,-1.2406,-1.2406,-1.2405,-1.2405,-1.2405,-1.1801,-1.1838,-1.1881,-1.1933,-1.1967,-1.2006,-1.2046,-1.2075,-1.2124,-1.2186,-1.2199,-1.2263,-1.2312,-1.2395,-1.2428,-1.2481,-1.2473,-1.2491,-1.2496,-1.25,-1.2502,-1.2395,-1.2493,-1.2492,-1.2492,-1.2492,-1.2492,0,-1.1884,-1.1912,-1.1959,-1.2017,-1.2058,-1.2058,-1.2105,-1.2141,-1.2196,-1.224,-1.2288,-1.2358,-1.2417,-1.2459,-1.252,-1.2555,-1.256,-1.257,-1.2568,-1.2575,-1.2505,-1.2488,-1.2565,-1.2565,-1.2565,-1.2565,-1.2565,-1.2565,-1.1932,-1.1996,-1.2012,-1.2094,-1.2123,-1.2183,-1.221,-1.2248,-1.2283,-1.2359,-1.2407,-1.2434,-1.2478,-1.2543,-1.2598,-1.261,-1.2632,-1.2643,-1.2654,-1.2588,-1.258,-1.2573,-1.2557,-1.2647,-1.2647,-1.272,-1.2721,-1.2721]},{"header":{"parameterUnit":"m.s-1","parameterCategory":1,"la1":30.2991,"la2":30.254,"lo1":-89.0895,"lo2":-89.0444,"dy":0.0017,"dx":0.0017,"nx":28,"ny":28,"refTime":"2024-03-16T09:00:00:Z","depth":0,"parameterNumber":3,"parameterNumberName":"V-component_of_WINDS"},"data":[0,0,0,0,0,0,0,0,0,0,0,0,0,0,0,0,0,0,0,0,0,0,0,0,0,0,0,0,0,0,0,0,0,0,0,0,0,0,0,0,0,0,0,0,0,0,0,0,0,0,0,0,0,0,0,0,0,0,0.7822,0.7823,0,0.7946,0.7948,0.7949,0.7936,0.7934,0.7932,0.793,0.8059,0.8064,0.8069,0,0,0,0,0,0,0,0,0,0,0,0,0,0.7577,0.7581,0.7822,0.7824,0.7825,0.7946,0.7948,0.7949,0.7936,0.7934,0.7931,0.7929,0.8057,0.8064,0.807,0,0,0,0,0,0,0,0,0,0,0,0,0,0.769,0.7583,0.7822,0.7833,0.7835,0.7946,0.7948,0.795,0.7937,0.7934,0.7931,0.7928,0.8055,0.8063,0.8071,0.8178,0,0,0.8095,0.8098,0,0,0,0,0,0,0,0,0.7684,0.7699,0.783,0.7833,0.7835,0.7922,0.7908,0.8026,0.7937,0.7898,0.793,0.7927,0.8016,0.8027,0.8057,0.8184,0.819,0.8096,0.81,0.8104,0.8106,0,0,0,0,0,0,0,0.7676,0.7694,0.7871,0.7832,0.7835,0.7833,0.7846,0.7931,0.7972,0.7901,0.7901,0.7916,0.8017,0.8049,0.806,0.8192,0.8095,0.8102,0.8107,0.811,0.8415,0.8418,0,0,0,0,0,0,0.7665,0.7688,0.7867,0.7875,0.7751,0.784,0.7854,0.7897,0.7971,0.798,0.7918,0.7914,0.8037,0.8051,0.8064,0.8196,0.8104,0.8111,0.8116,0.8412,0.8416,0.842,0,0,0,0,0,0,0.766,0.7681,0.7862,0.7781,0.7804,0.7847,0.7896,0.7901,0.7934,0.7984,0.7991,0.7943,0.8035,0.8053,0.815,0.82,0.8115,0.8122,0.8408,0.8413,0.8418,0.8459,0,0,0,0,0,0,0.7653,0.7679,0.772,0.7782,0.7808,0.7945,0.7899,0.7906,0.7947,0.7944,0.8009,0.8017,0.8035,0.8139,0.8158,0.8209,0.8128,0.8404,0.841,0.8416,0.8453,0.8464,0.8474,0,0,0,0,0,0.7644,0.7727,0.7722,0.7744,0.786,0.7948,0.7963,0.7981,0.7951,0.7993,0.8025,0.8015,0.8191,0.8149,0.817,0.8225,0.8401,0.8408,0.8416,0.8448,0.8462,0.8474,0,0,0,0,0,0,0.767,0.7735,0.7731,0.7835,0.7886,0.7946,0.7998,0.7995,0.8055,0.805,0.807,0.8085,0.8183,0.8214,0.8165,0.8333,0.8292,0.8304,0.8309,0.8323,0.8333,0.8324,0.8135,0,0,0,0,0,0.7687,0.7753,0.7807,0.7894,0.792,0.7955,0.7994,0.8003,0.8057,0.8079,0.8118,0.8171,0.8239,0.8283,0.8347,0.8458,0.8472,0.8506,0.8517,0.8525,0.8535,0.8597,0.8613,0.8444,0.8444,0.8444,0,0,0.7725,0.7769,0.7809,0.7901,0.7941,0.8009,0.7973,0.8047,0.8098,0.809,0.8184,0.8215,0.8276,0.838,0.8428,0.8409,0.8585,0.8535,0.8541,0.8547,0.8606,0.8622,0.8636,0.845,0.8449,0.8448,0,0,0.7828,0.7867,0.7945,0.7986,0.8048,0.8071,0.8089,0.815,0.817,0.8265,0.8261,0.8322,0.8438,0.8482,0.8519,0.864,0.8634,0.8661,0.8716,0.8776,0.8789,0.8801,0.8845,0.886,0.8671,0.8671,0.8671,0,0.7867,0.7968,0.7985,0.806,0.81,0.8097,0.8176,0.8215,0.8295,0.8324,0.8302,0.8447,0.8488,0.8603,0.8632,0.8663,0.8686,0.8653,0.8786,0.8798,0.8809,0.8851,0.8868,0.8674,0.8674,0.8674,0.8673,0,0.8013,0.8084,0.8139,0.8216,0.8264,0.834,0.837,0.8416,0.8421,0.8447,0.8544,0.8593,0.8668,0.8696,0.8703,0.8813,0.8799,0.8781,0.874,0.8828,0.8868,0.8884,0.8678,0.8677,0.8677,0.8676,0,0,0.8134,0.822,0.824,0.8276,0.8344,0.84,0.8477,0.855,0.8589,0.8645,0.8711,0.8809,0.8793,0.8836,0.8848,0.89,0.8994,0.8876,0.8878,0.8896,0.912,0.9133,0.9151,0.8991,0.8994,0.8996,0.9115,0,0.8244,0.8379,0.8397,0.8517,0.8584,0.8582,0.8649,0.8699,0.8726,0.8787,0.8817,0.8886,0.886,0.8886,0.8938,0.8971,0.9039,0.8963,0.9053,0.9056,0.9037,0.9172,0.9185,0.9295,0.913,0.9133,0.9135,0,0.8389,0.8449,0.8575,0.8636,0.8664,0.8724,0.8793,0.8852,0.8909,0.8925,0.8973,0.8978,0.906,0.9016,0.9128,0.9076,0.9115,0.9137,0.9142,0.9151,0.91,0.9184,0.933,0.9346,0.9159,0.9157,0.9156,0,0.8465,0.8577,0.8668,0.8698,0.8771,0.8813,0.8845,0.89,0.8943,0.9004,0.9032,0.9102,0.914,0.9195,0.922,0.9185,0.9331,0.9289,0.9348,0.9347,0.9378,0.9376,0.9532,0.9403,0.9402,0.9402,0.9402,0,0.8585,0.8663,0.8703,0.8758,0.8846,0.8867,0.8953,0.8984,0.9033,0.9096,0.9099,0.9158,0.9187,0.9251,0.9271,0.9362,0.9379,0.9395,0.9399,0.9395,0.9393,0.942,0.9413,0.9406,0.9405,0.9405,0.9404,0,0.8684,0.8714,0.8812,0.8873,0.8891,0.8953,0.9005,0.906,0.9087,0.9166,0.9186,0.9228,0.9304,0.9334,0.9427,0.944,0.9545,0.9543,0.9525,0.9527,0.9584,0.9578,0.9763,0.9788,0.9642,0.9643,0.9644,0,0.8759,0.8818,0.8886,0.8928,0.8962,0.9029,0.9073,0.9097,0.9143,0.9214,0.926,0.9336,0.9397,0.9518,0.9558,0.9629,0.9629,0.9689,0.964,0.9634,0.9631,0.9627,0.9634,0.9698,0.9699,0.9701,0.9702,0,0.8888,0.89,0.8963,0.9032,0.9084,0.914,0.9194,0.9228,0.9261,0.9313,0.9389,0.9437,0.9532,0.9607,0.9681,0.9715,0.9715,0.9717,0.9734,0.973,0.9717,0.9726,0.955,0.9712,0.9711,0.9711,0.971,0.971,0.8977,0.9031,0.9087,0.9157,0.9201,0.9251,0.9306,0.934,0.9404,0.9482,0.9493,0.9576,0.9634,0.9732,0.9771,0.9837,0.9821,0.9846,0.9853,0.9858,0.9863,0.9707,0.985,0.985,0.985,0.9849,0.9849,0,0.9107,0.9143,0.9208,0.9284,0.934,0.9333,0.9394,0.9441,0.9514,0.9567,0.9628,0.9717,0.979,0.9836,0.9911,0.9955,0.9957,0.9974,0.9971,0.9979,0.9872,0.9849,0.9971,0.9971,0.9971,0.9971,0.9971,0.9971,0.9181,0.9271,0.929,0.9403,0.9439,0.9519,0.9554,0.9602,0.9645,0.9744,0.9805,0.9834,0.9886,0.9964,1.0031,1.0043,1.0071,1.0089,1.01,0.9999,0.9986,0.9974,0.9953,1.0095,1.0095,1.0202,1.0203,1.0203]}]]